2023/10/06 00:00:00,24.3,11.1
2023/10/06 00:10:00,24.3,11.0
2023/10/06 00:20:00,24.3,11.2
2023/10/06 00:30:00,24.3,11.1
2023/10/06 00:40:00,24.3,11.0
2023/10/06 00:50:00,24.2,11.2
2023/10/06 01:00:00,24.3,11.0
2023/10/06 01:10:00,24.3,11.3
2023/10/06 01:20:00,24.3,11.2
2023/10/06 01:30:00,24.3,11.4
2023/10/06 01:40:00,24.3,11.3
2023/10/06 01:50:00,24.3,11.3
2023/10/06 02:00:00,24.4,11.2
2023/10/06 02:10:00,24.4,11.3
2023/10/06 02:20:00,24.4,11.2
2023/10/06 02:30:00,24.3,11.4
2023/10/06 02:40:00,24.3,11.0
2023/10/06 02:50:00,24.4,11.7
2023/10/06 03:00:00,24.3,11.3
2023/10/06 03:10:00,24.3,11.3
2023/10/06 03:20:00,24.3,11.4
2023/10/06 03:30:00,24.4,11.3
2023/10/06 03:40:00,24.4,10.9
2023/10/06 03:50:00,24.3,10.8
2023/10/06 04:00:00,24.3,10.6
2023/10/06 04:10:00,24.2,10.0
2023/10/06 04:20:00,24.2,10.2
2023/10/06 04:30:00,24.2,10.1
2023/10/06 04:40:00,24.1, 9.7
2023/10/06 04:50:00,23.8, 9.6
2023/10/06 05:00:00,24.1, 9.5
2023/10/06 05:10:00,24.2, 9.5
2023/10/06 05:20:00,24.1, 9.3
2023/10/06 05:30:00,24.2, 9.2
2023/10/06 05:40:00,24.2, 9.0
2023/10/06 05:50:00,24.2, 8.7
2023/10/06 06:00:00,24.1, 8.9
2023/10/06 06:10:00,24.2, 8.8
2023/10/06 06:20:00,24.2, 8.9
2023/10/06 06:30:00,24.2, 9.1
2023/10/06 06:40:00,24.2, 9.4
2023/10/06 06:50:00,24.2, 9.5
2023/10/06 07:00:00,24.2, 9.6
2023/10/06 07:10:00,24.3,10.2
2023/10/06 07:20:00,24.3,10.6
2023/10/06 07:30:00,24.3,10.7
2023/10/06 07:40:00,24.3,11.3
2023/10/06 07:50:00,24.3,11.6
2023/10/06 08:00:00,24.4,12.3
2023/10/06 08:10:00,24.3,12.1
2023/10/06 08:20:00,24.4,12.4
2023/10/06 08:30:00,24.4,13.1
2023/10/06 08:40:00,24.4,13.3
2023/10/06 08:50:00,24.3,13.7
2023/10/06 09:00:00,24.4,14.1
2023/10/06 09:10:00,24.4,14.5
2023/10/06 09:20:00,24.4,14.9
2023/10/06 09:30:00,24.4,15.6
2023/10/06 09:40:00,24.4,15.5
2023/10/06 09:50:00,24.3,15.2
2023/10/06 10:00:00,24.4,15.2
2023/10/06 10:10:00,25.6,15.8
2023/10/06 10:20:00,25.6,16.1
2023/10/06 10:30:00,24.6,16.8
2023/10/06 10:40:00,24.4,16.6
2023/10/06 10:50:00,24.8,16.6
2023/10/06 11:00:00,31.0,18.4
2023/10/06 11:10:00,24.8,18.1
2023/10/06 11:20:00,28.0,18.0
2023/10/06 11:30:00,---,18.2
2023/10/06 11:40:00,---,18.0
2023/10/06 11:50:00,26.6,18.4
2023/10/06 12:00:00,25.2,18.3
2023/10/06 12:10:00,26.6,18.5
2023/10/06 12:20:00,24.7,20.1
2023/10/06 12:30:00,---,18.2
2023/10/06 12:40:00,---,18.5
2023/10/06 12:50:00,28.4,18.6
2023/10/06 13:00:00,33.6,19.0
2023/10/06 13:10:00,52.1,18.9
2023/10/06 13:20:00,50.8,19.5
2023/10/06 13:30:00,50.5,19.5
2023/10/06 13:40:00,---,20.1
2023/10/06 13:50:00,---,18.4
2023/10/06 14:00:00,---,18.4
2023/10/06 14:10:00,24.2,18.5
2023/10/06 14:20:00,24.4,18.0
2023/10/06 14:30:00,---,18.2
2023/10/06 14:40:00,24.5,19.1
2023/10/06 14:50:00,24.2,18.7
2023/10/06 15:00:00,24.1,17.2
2023/10/06 15:10:00,26.8,16.7
2023/10/06 15:20:00,46.6,17.3
2023/10/06 15:30:00,51.3,17.2
2023/10/06 15:40:00,51.9,15.7
2023/10/06 15:50:00,53.2,15.0
2023/10/06 16:00:00,53.5,14.9
2023/10/06 16:10:00,53.5,14.7
2023/10/06 16:20:00,53.5,14.2
2023/10/06 16:30:00,53.6,13.7
2023/10/06 16:40:00,53.7,13.6
2023/10/06 16:50:00,53.6,13.8
2023/10/06 17:00:00,53.7,14.0
2023/10/06 17:10:00,53.6,13.3
2023/10/06 17:20:00,53.7,13.7
2023/10/06 17:30:00,53.7,13.5
2023/10/06 17:40:00,53.7,13.6
2023/10/06 17:50:00,53.7,13.1
2023/10/06 18:00:00,53.7,12.9
2023/10/06 18:10:00,53.7,12.7
2023/10/06 18:20:00,53.8,12.6
2023/10/06 18:30:00,53.8,12.4
2023/10/06 18:40:00,53.8,12.4
2023/10/06 18:50:00,53.8,12.0
2023/10/06 19:00:00,53.9,12.4
2023/10/06 19:10:00,53.9,12.0
2023/10/06 19:20:00,53.8,12.4
2023/10/06 19:30:00,53.8,12.0
2023/10/06 19:40:00,53.8,12.0
2023/10/06 19:50:00,53.8,12.1
2023/10/06 20:00:00,53.8,12.3
2023/10/06 20:10:00,53.8,12.0
2023/10/06 20:20:00,53.8,11.9
2023/10/06 20:30:00,53.8,11.7
2023/10/06 20:40:00,53.8,11.4
2023/10/06 20:50:00,53.9,11.3
2023/10/06 21:00:00,53.9,11.6
2023/10/06 21:10:00,53.9,11.6
2023/10/06 21:20:00,53.9,11.3
2023/10/06 21:30:00,53.9,11.6
2023/10/06 21:40:00,53.9,11.6
2023/10/06 21:50:00,54.0,12.2
2023/10/06 22:00:00,53.9,11.6
2023/10/06 22:10:00,53.9,11.6
2023/10/06 22:20:00,53.9,11.5
2023/10/06 22:30:00,53.9,11.7
2023/10/06 22:40:00,53.9,11.7
2023/10/06 22:50:00,53.9,11.4
2023/10/06 23:00:00,53.9,11.6
2023/10/06 23:10:00,53.9,11.6
2023/10/06 23:20:00,53.8,11.3
2023/10/06 23:30:00,53.8,11.2
2023/10/06 23:40:00,53.9,11.2
2023/10/06 23:50:00,53.9,10.8
